CW3322 Weather Reports


time (UTC)temp
C
wind
direction
speed
KPH
gust
KPH
rain 1hr
cm
rain 24hr
cm
rain mn
cm
humidity
%
barometer
mb
20260505224516 11 0.0 0.0 0.00 0.64 0.00 99 1008.0
20260505224120 11 0.0 0.0 0.00 0.64 0.00 99 1008.0
20260505223525 11 0.0 0.0 0.00 0.64 0.00 99 1008.0
20260505223017 11 0.0 0.0 0.00 0.64 0.00 99 1008.0
20260505222522 11 0.0 0.0 0.00 0.64 0.00 99 1008.0
20260505222027 11 0.0 0.0 0.00 0.64 0.00 99 1008.0
20260505221519 11 0.0 0.0 0.00 0.64 0.00 99 1008.0
20260505221107 11 0.0 0.0 0.00 0.64 0.00 99 1008.0
20260505220530 11 0.0 0.0 0.00 0.64 0.00 99 1008.0
20260505220052 11 0.0 0.0 0.00 0.64 0.00 99 1008.0
20260505215526 11 0.0 0.0 0.00 0.64 0.64 99 1008.0
20260505215018 11 0.0 0.0 0.00 0.64 0.64 99 1008.0
20260505214523 11 0.0 0.0 0.00 0.64 0.64 99 1008.0
20260505214015 11 0.0 0.0 0.00 0.64 0.64 99 1008.0
20260505213520 11 0.0 0.0 0.00 0.64 0.64 99 1008.0
20260505213025 11 0.0 0.0 0.00 0.64 0.64 99 1008.0
20260505212517 11 0.0 0.0 0.00 0.64 0.64 99 1008.0
20260505212051 11 0.0 0.0 0.00 0.64 0.64 99 1008.0
20260505211526 11 0.0 0.0 0.00 0.64 0.64 99 1008.0
20260505211018 11 0.0 0.0 0.00 0.64 0.64 99 1008.0
20260505210523 11 0.0 0.0 0.00 0.64 0.64 99 1008.0
20260505210016 11 0.0 0.0 0.00 0.64 0.64 99 1008.0
20260505205520 12 0.0 0.0 0.00 0.64 0.64 99 1008.0
20260505205025 12 0.0 0.0 0.00 0.64 0.64 99 1008.0
20260505204517 12 0.0 0.0 0.00 0.64 0.64 99 1008.0
20260505204022 12 0.0 0.0 0.00 0.64 0.64 99 1008.0
20260505203527 12 0.0 0.0 0.00 0.64 0.64 99 1008.0
20260505203020 12 0.0 0.0 0.00 0.64 0.64 99 1008.0
20260505202524 12 0.0 0.0 0.00 0.64 0.64 99 1008.0
20260505202017 12 0.0 0.0 0.00 0.64 0.64 99 1008.0
20260505201522 12 0.0 0.0 0.00 0.64 0.64 99 1008.0
20260505201027 12 0.0 0.0 0.00 0.64 0.64 99 1008.0
20260505200519 12 0.0 0.0 0.00 0.64 0.64 99 1008.0
20260505200024 12 0.0 0.0 0.00 0.64 0.64 99 1008.0
20260505195516 12 326 0.0 1.6 0.00 0.64 0.64 99 1008.0
20260505195021 12 0.0 0.0 0.00 0.64 0.64 99 1008.0
20260505194555 12 0.0 0.0 0.00 0.64 0.64 99 1008.0
20260505194018 12 0.0 0.0 0.00 0.64 0.64 99 1008.0
20260505193523 12 0.0 0.0 0.03 0.64 0.64 99 1008.0
20260505193015 12 0.0 0.0 0.03 0.64 0.64 99 1008.0
20260505192520 13 0.0 0.0 0.08 0.64 0.64 99 1008.0
20260505192025 13 0.0 0.0 0.13 0.64 0.64 99 1008.0
20260505191518 13 0.0 0.0 0.13 0.64 0.64 99 1008.0
20260505191145 13 0.0 0.0 0.13 0.64 0.64 99 1008.0
20260505190516 13 0.0 0.0 0.13 0.64 0.64 99 1008.0
20260505190218 13 0.0 0.0 0.13 0.64 0.64 99 1008.0
20260505185526 13 0.0 0.0 0.13 0.64 0.64 99 1008.0
20260505185018 13 0.0 0.0 0.15 0.64 0.64 99 1008.0
20260505184523 13 302 0.0 3.2 0.15 0.64 0.64 99 1008.0
20260505184016 13 0.0 0.0 0.15 0.64 0.64 99 1008.0
20260505183520 13 0.0 0.0 0.13 0.61 0.61 99 1008.0
20260505183025 13 0.0 0.0 0.13 0.61 0.61 99 1008.0
20260505182518 13 0.0 0.0 0.08 0.56 0.56 99 1008.0
20260505182053 13 0.0 0.0 0.03 0.51 0.51 99 1008.0
20260505181515 13 0.0 0.0 0.05 0.51 0.51 99 1008.0
20260505181020 13 323 0.0 1.6 0.10 0.51 0.51 99 1008.0
20260505180525 13 329 0.0 1.6 0.10 0.51 0.51 99 1008.0
20260505180017 13 348 0.0 1.6 0.10 0.51 0.51 99 1008.0
20260505175552 14 323 0.0 0.0 0.13 0.51 0.51 99 1008.0
20260505175057 14 0.0 0.0 0.10 0.48 0.48 99 1008.0
20260505174550 14 0.0 0.0 0.10 0.48 0.48 98 1008.0
20260505174024 14 0.0 0.0 0.10 0.48 0.48 97 1008.0
20260505173517 14 0.0 0.0 0.10 0.48 0.48 97 1008.0
20260505173022 14 0.0 0.0 0.10 0.48 0.48 97 1008.0
20260505172540 14 322 0.0 3.2 0.10 0.48 0.48 97 1008.0
20260505172033 14 0.0 0.0 0.10 0.48 0.48 96 1008.0
20260505171555 15 0.0 0.0 0.08 0.46 0.46 96 1008.0
20260505171048 15 0.0 0.0 0.03 0.41 0.41 96 1008.0
20260505170522 15 0.0 0.0 0.03 0.41 0.41 95 1008.0
20260505170015 15 0.0 0.0 0.03 0.41 0.41 95 1008.0
20260505165550 15 0.0 0.0 0.00 0.38 0.38 95 1008.0
20260505165025 15 0.0 0.0 0.00 0.38 0.38 94 1008.0
20260505164518 15 0.0 0.0 0.00 0.38 0.38 94 1008.0
20260505164023 15 0.0 0.0 0.00 0.38 0.38 94 1008.0
20260505163515 15 0.0 0.0 0.00 0.38 0.38 94 1008.0
20260505163020 15 0.0 0.0 0.00 0.38 0.38 93 1008.0
20260505162525 15 0.0 0.0 0.00 0.38 0.38 93 1008.0
20260505162018 15 0.0 0.0 0.00 0.38 0.38 93 1008.0
20260505161553 15 0.0 0.0 0.00 0.38 0.38 93 1008.0
20260505161017 15 8 0.0 0.0 0.00 0.38 0.38 92 1008.0
20260505160521 15 358 0.0 1.6 0.00 0.38 0.38 94 1008.0
20260505153020 15 0.0 0.0 0.00 0.38 0.38 95 1008.0
20260505152525 15 0.0 0.0 0.03 0.38 0.38 95 1008.0
20260505152017 15 0.0 0.0 0.05 0.38 0.38 95 1008.0
20260505151522 15 0.0 0.0 0.13 0.38 0.38 95 1008.0
20260505151028 15 0.0 0.0 0.18 0.38 0.38 95 1008.0
20260505150521 15 0.0 0.0 0.23 0.38 0.38 95 1008.0
20260505140518 15 0.0 0.0 0.08 0.15 0.15 95 1009.1
20260505125019 15 319 0.0 0.0 0.05 0.08 0.08 92 1009.1
20260505124524 15 0.0 0.0 0.05 0.08 0.08 92 1009.1
20260505124017 15 322 0.0 1.6 0.03 0.05 0.05 91 1009.1
20260505123552 15 319 0.0 1.6 0.03 0.05 0.05 92 1009.6
20260505123015 15 312 0.0 3.2 0.03 0.05 0.05 91 1010.1
20260505122550 15 320 0.0 0.0 0.03 0.05 0.05 91 1010.1
20260505122025 15 0.0 0.0 0.05 0.05 0.05 91 1009.6
20260505121518 15 0.0 0.0 0.05 0.05 0.05 91 1009.1
20260505121023 15 0.0 0.0 0.05 0.05 0.05 90 1009.1
20260505120515 15 0.0 0.0 0.03 0.03 0.03 90 1009.1
20260505120020 15 0.0 0.0 0.03 0.03 0.03 90 1009.1
20260505115525 15 0.0 0.0 0.03 0.03 0.03 89 1009.1
20260505115018 15 0.0 0.0 0.03 0.03 0.03 90 1009.0
20260505114523 15 0.0 0.0 0.03 0.03 0.03 90 1009.0
20260505114016 15 0.0 0.0 0.03 0.03 0.03 90 1009.0
20260505113520 15 313 0.0 1.6 0.03 0.03 0.03 90 1009.3
20260505113025 15 316 0.0 0.0 0.03 0.03 0.03 90 1010.0
20260505112518 15 318 0.0 3.2 0.03 0.03 0.03 90 1010.0
20260505112023 15 308 0.0 3.2 0.00 0.00 0.00 90 1010.0
20260505111516 15 308 1.6 4.8 0.00 0.00 0.00 89 1010.0
20260505111051 15 299 1.6 4.8 0.00 0.00 0.00 88 1010.1
20260505110526 15 318 0.0 1.6 0.00 0.00 0.00 88 1010.1
20260505102045 15 312 1.6 3.2 0.00 0.00 0.00 87 1010.1
20260505101550 15 324 0.0 3.2 0.00 0.00 0.00 87 1010.1
20260505101055 15 360 1.6 3.2 0.00 0.00 0.00 87 1010.1
20260505100517 15 348 0.0 3.2 0.00 0.00 0.00 86 1010.1
20260505100022 15 353 0.0 1.6 0.00 0.00 0.00 86 1010.1
20260505095610 15 31 0.0 1.6 0.00 0.00 0.00 87 1010.1
20260505095033 15 315 0.0 1.6 0.00 0.00 0.00 87 1010.1
20260505094525 15 321 0.0 1.6 0.00 0.00 0.00 88 1010.1
20260505094048 14 5 0.0 1.6 0.00 0.00 0.00 88 1010.1
20260505093521 14 304 0.0 3.2 0.00 0.00 0.00 88 1010.1
20260505093028 14 319 0.0 1.6 0.00 0.00 0.00 88 1010.1
20260505092519 15 313 1.6 3.2 0.00 0.00 0.00 88 1010.1
20260505092024 14 297 0.0 3.2 0.00 0.00 0.00 87 1010.1
20260505091547 14 349 0.0 1.6 0.00 0.00 0.00 88 1010.1
20260505091022 14 322 0.0 1.6 0.00 0.00 0.00 89 1010.1
20260505090527 14 345 1.6 3.2 0.00 0.00 0.00 89 1010.1
20260505090020 14 318 1.6 9.7 0.00 0.00 0.00 89 1010.1
20260505085938 14 312 0.0 3.2 0.00 0.00 0.00 89 1010.1
20260505085058 14 302 1.6 3.2 0.00 0.00 0.00 88 1010.1
20260505084522 14 278 0.0 1.6 0.00 0.00 0.00 88 1010.1
20260505084140 14 313 1.6 3.2 0.00 0.00 0.00 88 1010.1
20260505083520 14 328 0.0 1.6 0.00 0.00 0.00 88 1010.1
20260505083133 14 305 1.6 3.2 0.00 0.00 0.00 88 1010.1
20260505082547 14 312 0.0 1.6 0.00 0.00 0.00 87 1010.1
20260505082052 14 7 0.0 3.2 0.00 0.00 0.00 87 1010.1
20260505081515 14 300 0.0 3.2 0.00 0.00 0.00 88 1010.1
20260505081020 14 0 0.0 1.6 0.00 0.00 0.00 89 1010.1
20260505080525 14 0.0 0.0 0.00 0.00 0.00 89 1010.1
20260505080118 14 0.0 0.0 0.00 0.00 0.00 89 1010.1
20260505075522 14 0.0 0.0 0.00 0.00 0.00 89 1010.1
20260505075040 14 0.0 0.0 0.00 0.00 0.00 89 1010.1
20260505074532 14 359 0.0 0.0 0.00 0.00 0.00 89 1010.7
20260505074237 14 0.0 0.0 0.00 0.00 0.00 90 1011.1
20260505073021 14 0.0 0.0 0.00 0.00 0.00 90 1010.5
20260505072555 14 0.0 0.0 0.00 0.00 0.00 90 1010.1
20260505072018 14 0.0 0.0 0.00 0.00 0.00 91 1010.1
20260505071605 14 0.0 0.0 0.00 0.00 0.00 92 1011.1
20260505071015 14 0.0 0.0 0.00 0.00 0.00 92 1011.1
20260505070519 13 0.0 0.0 0.00 0.00 0.00 93 1011.1
20260505070024 13 0.0 0.0 0.00 0.00 0.00 93 1011.1
20260505065516 13 0.0 0.0 0.00 0.00 0.00 93 1011.1
20260505065021 13 0.0 0.0 0.00 0.00 0.00 94 1011.1
20260505064525 13 0.0 0.0 0.00 0.00 0.00 94 1011.1
20260505064048 13 0.0 0.0 0.00 0.00 0.00 95 1011.1
20260505063610 13 0.0 0.0 0.00 0.00 0.00 96 1011.1
20260505063015 13 0.0 0.0 0.00 0.00 0.00 96 1011.1
20260505062628 12 0.0 0.0 0.00 0.00 0.00 97 1011.1
20260505062024 12 0.0 0.0 0.00 0.00 0.00 97 1011.1
20260505061835 12 0.0 0.0 0.00 0.00 0.00 97 1011.1
20260505061021 12 0.0 0.0 0.00 0.00 0.00 97 1011.1
20260505060526 12 0.0 0.0 0.00 0.00 0.00 97 1011.1
20260505060048 12 0.0 0.0 0.00 0.00 0.00 97 1011.1
20260505055523 12 0.0 0.0 0.00 0.00 0.00 97 1011.1
20260505055422 12 0.0 0.0 0.00 0.00 0.00 98 1011.1
20260505054520 12 0.0 0.0 0.00 0.00 0.00 98 1011.1
20260505054024 12 0.0 0.0 0.00 0.00 0.00 98 1011.1
20260505053845 12 0.0 0.0 0.00 0.00 0.00 98 1011.1
20260505053021 12 0.0 0.0 0.00 0.00 0.00 98 1011.1
20260505052556 12 0.0 0.0 0.00 0.00 0.00 99 1011.1
20260505052150 12 0.0 0.0 0.00 0.00 0.00 99 1011.1
20260505051523 12 0.0 0.0 0.00 0.00 0.00 99 1011.1
20260505051027 12 0.0 0.0 0.00 0.00 0.00 99 1011.1
20260505050759 12 0.0 0.0 0.00 0.00 0.00 99 1011.1
20260505041515 11 0.0 0.0 0.00 0.00 0.00 99 1011.1
20260505041020 11 0.0 0.0 0.00 0.00 0.00 99 1011.1
20260505040524 11 0.0 0.0 0.00 0.00 0.00 99 1011.1
20260505040047 11 0.0 0.0 0.00 0.00 0.00 99 1011.1
20260505035522 11 0.0 0.0 0.00 0.00 0.00 99 1011.1
20260505035027 11 0.0 0.0 0.00 0.00 0.00 99 1011.1
20260505034518 12 0.0 0.0 0.00 0.00 0.00 99 1011.1
20260505034432 12 0.0 0.0 0.00 0.00 0.00 98 1011.1
20260505033515 12 0.0 0.0 0.00 0.00 0.00 99 1011.1
20260505033432 11 0.0 0.0 0.00 0.00 0.00 98 1011.1
20260505032524 11 0.0 0.0 0.00 0.00 0.00 98 1011.2
20260505032117 11 0.0 0.0 0.00 0.00 0.00 98 1011.2
20260505031522 11 0.0 0.0 0.00 0.00 0.00 98 1011.2
20260505031026 11 0.0 0.0 0.00 0.00 0.00 98 1011.2
20260505030519 11 0.0 0.0 0.00 0.00 0.00 98 1011.2
20260505030024 11 0.0 0.0 0.00 0.00 0.00 98 1011.2
20260505025516 11 0.0 0.0 0.00 0.00 0.00 98 1011.2
20260505025021 11 0.0 0.0 0.00 0.00 0.00 98 1011.2
20260505024526 11 0.0 0.0 0.00 0.00 0.00 98 1011.2
20260505024018 12 0.0 0.0 0.00 0.00 0.00 98 1011.2
20260505023523 12 0.0 0.0 0.00 0.00 0.00 98 1011.2
20260505023145 11 0.0 0.0 0.00 0.00 0.00 98 1011.2
20260505022520 11 0.0 0.0 0.00 0.00 0.00 98 1011.2
20260505022025 11 0.0 0.0 0.00 0.00 0.00 98 1012.2
20260505021518 11 0.0 0.0 0.00 0.00 0.00 98 1012.2
20260505021022 11 0.0 0.0 0.00 0.00 0.00 98 1012.2
20260505020527 11 0.0 0.0 0.00 0.00 0.00 98 1012.2
20260505020049 11 0.0 0.0 0.00 0.00 0.00 98 1012.2
20260505015820 11 0.0 0.0 0.00 0.00 0.00 98 1012.2
20260505015046 11 0.0 0.0 0.00 0.00 0.00 98 1012.2
20260505014925 11 0.0 0.0 0.00 0.00 0.00 98 1012.2
20260505014026 11 0.0 0.0 0.00 0.00 0.00 98 1012.2
20260505013549 11 0.0 0.0 0.00 0.00 0.00 98 1012.2
20260505013023 11 0.0 0.0 0.00 0.00 0.00 98 1012.2
20260505012516 11 0.0 0.0 0.00 0.00 0.00 98 1012.2
20260505012020 11 0.0 0.0 0.00 0.00 0.00 98 1012.2
20260505011525 11 0.0 0.0 0.00 0.00 0.00 98 1012.2
20260505011048 11 0.0 0.0 0.00 0.00 0.00 97 1012.2
20260505010858 11 0.0 0.0 0.00 0.00 0.00 97 1012.2
20260505010045 11 0.0 0.0 0.00 0.00 0.00 97 1012.2
20260505005519 11 0.0 0.0 0.00 0.00 0.00 97 1012.2
20260505005024 11 0.0 0.0 0.00 0.00 0.00 97 1012.2
20260505004517 11 0.0 0.0 0.00 0.00 0.00 98 1012.2
20260505004021 11 0.0 0.0 0.00 0.00 0.00 97 1012.2
20260505003526 11 0.0 0.0 0.00 0.00 0.00 98 1012.2
20260505003415 11 0.0 0.0 0.00 0.00 0.00 98 1012.2
20260505002523 11 0.0 0.0 0.00 0.00 0.00 98 1012.2
20260505002452 11 0.0 0.0 0.00 0.00 0.00 97 1012.2
20260505001522 11 0.0 0.0 0.00 0.00 0.00 98 1012.2
20260505001026 11 0.0 0.0 0.00 0.00 0.00 98 1012.2
20260505000518 11 0.0 0.0 0.00 0.00 0.00 97 1012.2
20260505000023 11 0.0 0.0 0.00 0.00 0.00 98 1012.2
20260504235516 11 0.0 0.0 0.00 0.00 0.00 98 1012.2
20260504235020 11 0.0 0.0 0.00 0.00 0.00 97 1012.5
20260504234525 11 0.0 0.0 0.00 0.00 0.00 98 1013.2
20260504234048 11 0.0 0.0 0.00 0.00 0.00 97 1013.2
20260504233552 11 0.0 0.0 0.00 0.00 0.00 97 1013.2
20260504233045 11 0.0 0.0 0.00 0.00 0.00 97 1013.2
20260504232550 11 0.0 0.0 0.00 0.00 0.00 98 1013.1
20260504232055 11 0.0 0.0 0.00 0.00 0.00 98 1013.1
20260504231517 11 0.0 0.0 0.00 0.00 0.00 98 1013.1
20260504231022 11 0.0 0.0 0.00 0.00 0.00 97 1013.1
20260504230527 11 0.0 0.0 0.00 0.00 0.00 97 1013.1
20260504230019 11 0.0 0.0 0.00 0.00 0.00 96 1013.1
20260504225524 11 0.0 0.0 0.00 0.00 0.00 97 1013.1
20260504225017 11 0.0 0.0 0.00 0.00 0.00 97 1013.1